| time (UTC) | temp C | wind direction | speed KPH | gust KPH | rain 1hr cm | rain 24hr cm | rain mn cm | humidity % | barometer mb |
| 20260507193626 | 12 | 360 | 6.4 | 20.9 | 0.00 | 0.00 | 0.00 | 44 | 1013.2 |
| 20260507193141 | 11 | 360 | 9.7 | 25.7 | 0.00 | 0.00 | 0.00 | 45 | 1013.3 |
| 20260507192701 | 11 | 360 | 12.9 | 25.7 | 0.00 | 0.00 | 0.00 | 47 | 1013.5 |
| 20260507192151 | 11 | 360 | 17.7 | 25.7 | 0.00 | 0.00 | 0.00 | 45 | 1013.5 |
| 20260507191626 | 11 | 360 | 4.8 | 24.1 | 0.00 | 0.00 | 0.00 | 45 | 1013.4 |
| 20260507191136 | 11 | 360 | 6.4 | 29.0 | 0.00 | 0.00 | 0.00 | 45 | 1013.5 |
| 20260507190627 | 11 | 360 | 16.1 | 29.0 | 0.00 | 0.00 | 0.00 | 46 | 1013.4 |
| 20260507190207 | 10 | 360 | 11.3 | 24.1 | 0.00 | 0.00 | 0.00 | 46 | 1013.4 |
| 20260507185657 | 10 | 360 | 16.1 | 24.1 | 0.00 | 0.00 | 0.00 | 46 | 1013.6 |
| 20260507185126 | 10 | 360 | 6.4 | 29.0 | 0.00 | 0.00 | 0.00 | 46 | 1013.5 |
| 20260507184650 | 10 | 360 | 14.5 | 30.6 | 0.00 | 0.00 | 0.00 | 45 | 1013.7 |
| 20260507184131 | 11 | 360 | 16.1 | 30.6 | 0.00 | 0.00 | 0.00 | 45 | 1013.6 |
| 20260507183651 | 11 | 360 | 6.4 | 19.3 | 0.00 | 0.00 | 0.00 | 45 | 1013.5 |
| 20260507183142 | 10 | 360 | 8.0 | 20.9 | 0.00 | 0.00 | 0.00 | 46 | 1013.6 |
| 20260507182633 | 10 | 360 | 9.7 | 20.9 | 0.00 | 0.00 | 0.00 | 46 | 1013.6 |
| 20260507182143 | 10 | 360 | 8.0 | 24.1 | 0.00 | 0.00 | 0.00 | 47 | 1013.5 |
| 20260507181706 | 10 | 360 | 6.4 | 25.7 | 0.00 | 0.00 | 0.00 | 47 | 1013.7 |
| 20260507181136 | 10 | 360 | 14.5 | 25.7 | 0.00 | 0.00 | 0.00 | 47 | 1013.7 |
| 20260507180647 | 10 | 360 | 8.0 | 22.5 | 0.00 | 0.00 | 0.00 | 47 | 1013.7 |
| 20260507180142 | 10 | 360 | 12.9 | 25.7 | 0.00 | 0.00 | 0.00 | 47 | 1013.6 |
| 20260507175629 | 10 | 360 | 12.9 | 25.7 | 0.00 | 0.00 | 0.00 | 46 | 1013.7 |
| 20260507175139 | 10 | 360 | 9.7 | 30.6 | 0.00 | 0.00 | 0.00 | 47 | 1013.7 |
| 20260507174634 | 10 | 360 | 17.7 | 30.6 | 0.00 | 0.00 | 0.00 | 47 | 1013.7 |
| 20260507174154 | 10 | 360 | 16.1 | 30.6 | 0.00 | 0.00 | 0.00 | 48 | 1013.8 |
| 20260507173644 | 10 | 360 | 14.5 | 25.7 | 0.00 | 0.00 | 0.00 | 47 | 1013.8 |
| 20260507173139 | 10 | 360 | 11.3 | 22.5 | 0.00 | 0.00 | 0.00 | 47 | 1013.9 |
| 20260507172630 | 10 | 360 | 11.3 | 19.3 | 0.00 | 0.00 | 0.00 | 47 | 1013.9 |
| 20260507172141 | 10 | 360 | 11.3 | 25.7 | 0.00 | 0.00 | 0.00 | 47 | 1014.0 |
| 20260507171701 | 10 | 360 | 6.4 | 25.7 | 0.00 | 0.00 | 0.00 | 49 | 1014.2 |
| 20260507171150 | 10 | 360 | 17.7 | 24.1 | 0.00 | 0.00 | 0.00 | 48 | 1014.3 |
| 20260507170640 | 10 | 360 | 8.0 | 25.7 | 0.00 | 0.00 | 0.00 | 50 | 1014.3 |
| 20260507170135 | 10 | 360 | 6.4 | 25.7 | 0.00 | 0.00 | 0.00 | 48 | 1014.4 |
| 20260507165626 | 10 | 360 | 11.3 | 24.1 | 0.00 | 0.00 | 0.00 | 49 | 1014.5 |
| 20260507165137 | 9 | 360 | 11.3 | 27.4 | 0.00 | 0.00 | 0.00 | 51 | 1014.5 |
| 20260507164632 | 9 | 360 | 14.5 | 29.0 | 0.00 | 0.00 | 0.00 | 50 | 1014.6 |
| 20260507164146 | 9 | 360 | 19.3 | 29.0 | 0.00 | 0.00 | 0.00 | 50 | 1014.7 |
| 20260507163637 | 9 | 360 | 17.7 | 33.8 | 0.00 | 0.00 | 0.00 | 50 | 1014.6 |
| 20260507163131 | 9 | 360 | 11.3 | 29.0 | 0.00 | 0.00 | 0.00 | 50 | 1014.7 |
| 20260507162642 | 9 | 360 | 11.3 | 29.0 | 0.00 | 0.00 | 0.00 | 50 | 1014.8 |
| 20260507162152 | 9 | 360 | 12.9 | 24.1 | 0.00 | 0.00 | 0.00 | 50 | 1014.8 |
| 20260507161635 | 9 | 360 | 16.1 | 24.1 | 0.00 | 0.00 | 0.00 | 52 | 1015.0 |
| 20260507161126 | 9 | 360 | 16.1 | 25.7 | 0.00 | 0.00 | 0.00 | 50 | 1015.0 |
| 20260507160632 | 9 | 360 | 16.1 | 32.2 | 0.00 | 0.00 | 0.00 | 51 | 1015.0 |
| 20260507160126 | 9 | 360 | 16.1 | 29.0 | 0.00 | 0.00 | 0.00 | 50 | 1015.0 |
| 20260507155637 | 9 | 360 | 12.9 | 29.0 | 0.00 | 0.00 | 0.00 | 51 | 1015.2 |
| 20260507155128 | 9 | 360 | 9.7 | 30.6 | 0.00 | 0.00 | 0.00 | 52 | 1015.0 |
| 20260507154652 | 8 | 360 | 17.7 | 30.6 | 0.00 | 0.00 | 0.00 | 51 | 1015.1 |
| 20260507154143 | 8 | 360 | 19.3 | 32.2 | 0.00 | 0.00 | 0.00 | 51 | 1015.1 |
| 20260507153653 | 8 | 360 | 11.3 | 32.2 | 0.00 | 0.00 | 0.00 | 52 | 1015.0 |
| 20260507153153 | 8 | 360 | 12.9 | 30.6 | 0.00 | 0.00 | 0.00 | 53 | 1015.0 |
| 20260507152634 | 8 | 360 | 19.3 | 30.6 | 0.00 | 0.00 | 0.00 | 52 | 1015.0 |
| 20260507152124 | 8 | 360 | 17.7 | 27.4 | 0.00 | 0.00 | 0.00 | 53 | 1014.9 |
| 20260507151629 | 8 | 360 | 12.9 | 29.0 | 0.00 | 0.00 | 0.00 | 53 | 1014.9 |
| 20260507151140 | 8 | 360 | 17.7 | 29.0 | 0.00 | 0.00 | 0.00 | 51 | 1015.0 |
| 20260507150630 | 8 | 360 | 16.1 | 27.4 | 0.00 | 0.00 | 0.00 | 52 | 1014.9 |
| 20260507150143 | 8 | 360 | 11.3 | 32.2 | 0.00 | 0.00 | 0.00 | 52 | 1014.8 |
| 20260507145700 | 8 | 360 | 19.3 | 32.2 | 0.00 | 0.00 | 0.00 | 52 | 1014.8 |
| 20260507145138 | 8 | 360 | 16.1 | 29.0 | 0.00 | 0.00 | 0.00 | 53 | 1014.9 |
| 20260507144701 | 8 | 360 | 16.1 | 29.0 | 0.00 | 0.00 | 0.00 | 52 | 1014.9 |
| 20260507144151 | 8 | 360 | 17.7 | 33.8 | 0.00 | 0.00 | 0.00 | 53 | 1014.9 |
| 20260507143640 | 8 | 360 | 17.7 | 35.4 | 0.00 | 0.00 | 0.00 | 53 | 1014.9 |
| 20260507143131 | 8 | 360 | 19.3 | 35.4 | 0.00 | 0.00 | 0.00 | 54 | 1015.0 |
| 20260507142651 | 8 | 360 | 16.1 | 32.2 | 0.00 | 0.00 | 0.00 | 53 | 1015.0 |
| 20260507142202 | 8 | 360 | 9.7 | 32.2 | 0.00 | 0.00 | 0.00 | 54 | 1015.1 |
| 20260507141636 | 8 | 360 | 14.5 | 29.0 | 0.00 | 0.00 | 0.00 | 53 | 1015.0 |
| 20260507141125 | 8 | 360 | 14.5 | 29.0 | 0.00 | 0.00 | 0.00 | 55 | 1015.1 |
| 20260507140635 | 7 | 360 | 14.5 | 29.0 | 0.00 | 0.00 | 0.00 | 55 | 1015.1 |
| 20260507140139 | 8 | 360 | 14.5 | 30.6 | 0.00 | 0.00 | 0.00 | 57 | 1015.1 |
| 20260507135646 | 7 | 360 | 17.7 | 30.6 | 0.00 | 0.00 | 0.00 | 55 | 1015.1 |
| 20260507135136 | 7 | 360 | 17.7 | 25.7 | 0.00 | 0.00 | 0.00 | 58 | 1015.1 |
| 20260507134630 | 7 | 360 | 17.7 | 22.5 | 0.00 | 0.00 | 0.00 | 58 | 1015.0 |
| 20260507134140 | 7 | 360 | 14.5 | 22.5 | 0.00 | 0.00 | 0.00 | 60 | 1015.0 |
| 20260507133631 | 7 | 360 | 12.9 | 20.9 | 0.00 | 0.00 | 0.00 | 62 | 1014.9 |
| 20260507133126 | 7 | 360 | 11.3 | 19.3 | 0.00 | 0.00 | 0.00 | 64 | 1015.0 |
| 20260507132646 | 7 | 360 | 12.9 | 24.1 | 0.00 | 0.00 | 0.00 | 65 | 1014.9 |
| 20260507132127 | 7 | 360 | 12.9 | 24.1 | 0.00 | 0.00 | 0.00 | 66 | 1014.9 |
| 20260507131626 | 7 | 360 | 8.0 | 19.3 | 0.00 | 0.00 | 0.00 | 67 | 1014.9 |
| 20260507131137 | 6 | 360 | 11.3 | 20.9 | 0.00 | 0.00 | 0.00 | 68 | 1014.8 |
| 20260507130648 | 6 | 360 | 12.9 | 20.9 | 0.00 | 0.00 | 0.00 | 69 | 1014.8 |
| 20260507130150 | 6 | 360 | 9.7 | 19.3 | 0.00 | 0.00 | 0.00 | 70 | 1014.8 |
| 20260507125641 | 6 | 360 | 6.4 | 19.3 | 0.00 | 0.00 | 0.00 | 71 | 1014.6 |
| 20260507125152 | 6 | 240 | 8.0 | 16.1 | 0.00 | 0.00 | 0.00 | 72 | 1014.6 |
| 20260507124626 | 6 | 360 | 8.0 | 16.1 | 0.00 | 0.00 | 0.00 | 72 | 1014.5 |
| 20260507124132 | 6 | 360 | 8.0 | 14.5 | 0.00 | 0.00 | 0.00 | 73 | 1014.5 |
| 20260507123712 | 6 | 219 | 9.7 | 17.7 | 0.00 | 0.00 | 0.00 | 73 | 1014.7 |
| 20260507123145 | 5 | 360 | 11.3 | 19.3 | 0.00 | 0.00 | 0.00 | 74 | 1014.5 |
| 20260507122656 | 5 | 238 | 9.7 | 20.9 | 0.00 | 0.00 | 0.00 | 75 | 1014.6 |
| 20260507122153 | 5 | 360 | 9.7 | 17.7 | 0.00 | 0.00 | 0.00 | 76 | 1014.6 |
| 20260507121628 | 5 | 360 | 12.9 | 19.3 | 0.00 | 0.00 | 0.00 | 76 | 1014.5 |
| 20260507121130 | 5 | 360 | 9.7 | 19.3 | 0.00 | 0.00 | 0.00 | 76 | 1014.5 |
| 20260507120701 | 5 | 360 | 11.3 | 19.3 | 0.00 | 0.00 | 0.00 | 76 | 1014.5 |
| 20260507120204 | 5 | 360 | 8.0 | 24.1 | 0.00 | 0.00 | 0.00 | 76 | 1014.5 |
| 20260507115634 | 5 | 360 | 11.3 | 24.1 | 0.00 | 0.00 | 0.00 | 76 | 1014.5 |
| 20260507115144 | 5 | 360 | 9.7 | 19.3 | 0.00 | 0.00 | 0.00 | 76 | 1014.5 |
| 20260507114639 | 5 | 360 | 9.7 | 19.3 | 0.00 | 0.00 | 0.00 | 76 | 1014.4 |
| 20260507114130 | 4 | 360 | 9.7 | 16.1 | 0.00 | 0.00 | 0.00 | 76 | 1014.3 |
| 20260507113637 | 4 | 360 | 8.0 | 17.7 | 0.00 | 0.00 | 0.00 | 76 | 1014.2 |
| 20260507113201 | 4 | 360 | 8.0 | 17.7 | 0.00 | 0.00 | 0.00 | 76 | 1014.2 |
| 20260507112651 | 4 | 225 | 6.4 | 16.1 | 0.00 | 0.00 | 0.00 | 76 | 1014.2 |
| 20260507112150 | 4 | 360 | 6.4 | 16.1 | 0.00 | 0.00 | 0.00 | 76 | 1014.2 |
| 20260507111644 | 3 | 360 | 6.4 | 11.3 | 0.00 | 0.00 | 0.00 | 76 | 1014.1 |
| 20260507111155 | 3 | 360 | 4.8 | 9.7 | 0.00 | 0.00 | 0.00 | 76 | 1013.9 |
| 20260507110641 | 3 | 360 | 4.8 | 9.7 | 0.00 | 0.00 | 0.00 | 76 | 1013.9 |
| 20260507110145 | 3 | 360 | 3.2 | 11.3 | 0.00 | 0.00 | 0.00 | 76 | 1013.8 |
| 20260507105635 | 3 | 360 | 6.4 | 11.3 | 0.00 | 0.00 | 0.00 | 76 | 1013.9 |
| 20260507105146 | 3 | 229 | 6.4 | 8.0 | 0.00 | 0.00 | 0.00 | 75 | 1013.8 |
| 20260507104629 | 3 | 360 | 4.8 | 8.0 | 0.00 | 0.00 | 0.00 | 75 | 1013.8 |
| 20260507104139 | 3 | 360 | 4.8 | 8.0 | 0.00 | 0.00 | 0.00 | 75 | 1013.7 |
| 20260507103625 | 3 | 360 | 3.2 | 8.0 | 0.00 | 0.00 | 0.00 | 75 | 1013.8 |
| 20260507103141 | 3 | 360 | 4.8 | 8.0 | 0.00 | 0.00 | 0.00 | 74 | 1013.6 |
| 20260507102702 | 3 | 230 | 4.8 | 8.0 | 0.00 | 0.00 | 0.00 | 74 | 1013.7 |
| 20260507102152 | 3 | 360 | 4.8 | 8.0 | 0.00 | 0.00 | 0.00 | 74 | 1013.7 |
| 20260507101627 | 3 | 360 | 4.8 | 6.4 | 0.00 | 0.00 | 0.00 | 73 | 1013.6 |
| 20260507101138 | 3 | 232 | 3.2 | 6.4 | 0.00 | 0.00 | 0.00 | 73 | 1013.7 |
| 20260507100629 | 3 | 360 | 3.2 | 4.8 | 0.00 | 0.00 | 0.00 | 73 | 1013.7 |
| 20260507100129 | 4 | 360 | 3.2 | 4.8 | 0.00 | 0.00 | 0.00 | 73 | 1013.5 |
| 20260507095638 | 4 | 360 | 3.2 | 4.8 | 0.00 | 0.00 | 0.00 | 72 | 1013.7 |
| 20260507095128 | 4 | 360 | 1.6 | 4.8 | 0.00 | 0.00 | 0.00 | 72 | 1013.7 |
| 20260507094652 | 4 | 360 | 0.0 | 3.2 | 0.00 | 0.00 | 0.00 | 71 | 1013.7 |
| 20260507094203 | 4 | 360 | 1.6 | 3.2 | 0.00 | 0.00 | 0.00 | 71 | 1013.6 |
| 20260507093633 | 4 | 231 | 1.6 | 4.8 | 0.00 | 0.00 | 0.00 | 71 | 1013.5 |
| 20260507093144 | 5 | 237 | 1.6 | 4.8 | 0.00 | 0.00 | 0.00 | 71 | 1013.5 |
| 20260507092635 | 5 | 360 | 1.6 | 4.8 | 0.00 | 0.00 | 0.00 | 70 | 1013.6 |
| 20260507092214 | 5 | 360 | 3.2 | 6.4 | 0.00 | 0.00 | 0.00 | 70 | 1013.6 |
| 20260507091626 | 5 | 360 | 3.2 | 6.4 | 0.00 | 0.00 | 0.00 | 70 | 1013.6 |
| 20260507091137 | 5 | 360 | 1.6 | 4.8 | 0.00 | 0.00 | 0.00 | 69 | 1013.7 |
| 20260507090636 | 5 | 250 | 1.6 | 6.4 | 0.00 | 0.00 | 0.00 | 69 | 1013.8 |
| 20260507090127 | 5 | 360 | 3.2 | 6.4 | 0.00 | 0.00 | 0.00 | 69 | 1013.8 |
| 20260507085638 | 5 | 360 | 3.2 | 4.8 | 0.00 | 0.00 | 0.00 | 69 | 1013.8 |
| 20260507085129 | 5 | 360 | 3.2 | 4.8 | 0.00 | 0.00 | 0.00 | 69 | 1013.8 |
| 20260507084652 | 5 | 360 | 3.2 | 4.8 | 0.00 | 0.00 | 0.00 | 69 | 1013.9 |
| 20260507084133 | 5 | 360 | 3.2 | 4.8 | 0.00 | 0.00 | 0.00 | 69 | 1013.8 |
| 20260507083653 | 5 | 360 | 1.6 | 4.8 | 0.00 | 0.00 | 0.00 | 69 | 1013.8 |
| 20260507083128 | 5 | 360 | 3.2 | 4.8 | 0.00 | 0.00 | 0.00 | 69 | 1013.9 |
| 20260507082639 | 5 | 360 | 3.2 | 4.8 | 0.00 | 0.00 | 0.00 | 70 | 1013.8 |
| 20260507082126 | 5 | 360 | 3.2 | 4.8 | 0.00 | 0.00 | 0.00 | 70 | 1013.9 |
| 20260507081642 | 5 | 273 | 3.2 | 6.4 | 0.00 | 0.00 | 0.00 | 69 | 1013.8 |
| 20260507081203 | 5 | 360 | 3.2 | 6.4 | 0.00 | 0.00 | 0.00 | 70 | 1013.9 |
| 20260507080651 | 5 | 360 | 1.6 | 3.2 | 0.00 | 0.00 | 0.00 | 70 | 1014.0 |
| 20260507080126 | 5 | 360 | 1.6 | 4.8 | 0.00 | 0.00 | 0.00 | 70 | 1014.0 |
| 20260507075637 | 5 | 360 | 3.2 | 4.8 | 0.00 | 0.00 | 0.00 | 70 | 1014.0 |
| 20260507075127 | 5 | 360 | 3.2 | 6.4 | 0.00 | 0.00 | 0.00 | 70 | 1014.1 |
| 20260507074638 | 5 | 360 | 3.2 | 6.4 | 0.00 | 0.00 | 0.00 | 70 | 1014.1 |
| 20260507074158 | 5 | 360 | 1.6 | 4.8 | 0.00 | 0.00 | 0.00 | 70 | 1014.1 |
| 20260507073627 | 5 | 360 | 3.2 | 6.4 | 0.00 | 0.00 | 0.00 | 69 | 1014.1 |
| 20260507073140 | 5 | 360 | 1.6 | 6.4 | 0.00 | 0.00 | 0.00 | 69 | 1014.0 |
| 20260507072631 | 5 | 360 | 3.2 | 6.4 | 0.00 | 0.00 | 0.00 | 69 | 1014.1 |
| 20260507072211 | 5 | 360 | 3.2 | 6.4 | 0.00 | 0.00 | 0.00 | 68 | 1014.0 |
| 20260507071640 | 5 | 360 | 3.2 | 6.4 | 0.00 | 0.00 | 0.00 | 68 | 1014.0 |
| 20260507071131 | 5 | 360 | 3.2 | 4.8 | 0.00 | 0.00 | 0.00 | 68 | 1014.0 |
| 20260507070642 | 6 | 360 | 3.2 | 9.7 | 0.00 | 0.00 | 0.00 | 68 | 1014.0 |
| 20260507070137 | 6 | 360 | 3.2 | 9.7 | 0.00 | 0.00 | 0.00 | 68 | 1014.0 |
| 20260507065627 | 6 | 300 | 3.2 | 6.4 | 0.00 | 0.00 | 0.00 | 67 | 1014.1 |
| 20260507065207 | 6 | 360 | 3.2 | 8.0 | 0.00 | 0.00 | 0.00 | 67 | 1014.1 |
| 20260507064641 | 6 | 273 | 4.8 | 8.0 | 0.00 | 0.00 | 0.00 | 67 | 1014.3 |
| 20260507064148 | 6 | 360 | 4.8 | 8.0 | 0.00 | 0.00 | 0.00 | 67 | 1014.3 |
| 20260507063638 | 6 | 360 | 3.2 | 12.9 | 0.00 | 0.00 | 0.00 | 67 | 1014.3 |
| 20260507063142 | 6 | 279 | 4.8 | 12.9 | 0.00 | 0.00 | 0.00 | 67 | 1014.3 |
| 20260507062633 | 6 | 360 | 6.4 | 12.9 | 0.00 | 0.00 | 0.00 | 66 | 1014.3 |
| 20260507062144 | 6 | 360 | 3.2 | 12.9 | 0.00 | 0.00 | 0.00 | 66 | 1014.2 |
| 20260507061639 | 6 | 360 | 4.8 | 14.5 | 0.00 | 0.00 | 0.00 | 66 | 1014.2 |
| 20260507061130 | 7 | 360 | 6.4 | 14.5 | 0.00 | 0.00 | 0.00 | 65 | 1014.2 |
| 20260507060641 | 7 | 360 | 4.8 | 12.9 | 0.00 | 0.00 | 0.00 | 65 | 1014.2 |
| 20260507060134 | 7 | 360 | 4.8 | 14.5 | 0.00 | 0.00 | 0.00 | 64 | 1014.1 |
| 20260507055624 | 7 | 360 | 6.4 | 16.1 | 0.00 | 0.00 | 0.00 | 63 | 1014.1 |
| 20260507055144 | 7 | 273 | 4.8 | 16.1 | 0.00 | 0.00 | 0.00 | 62 | 1014.2 |
| 20260507054639 | 7 | 360 | 9.7 | 16.1 | 0.00 | 0.00 | 0.00 | 62 | 1014.2 |
| 20260507054125 | 7 | 360 | 4.8 | 12.9 | 0.00 | 0.00 | 0.00 | 61 | 1014.2 |
| 20260507053636 | 7 | 360 | 6.4 | 12.9 | 0.00 | 0.00 | 0.00 | 61 | 1014.3 |
| 20260507053131 | 7 | 254 | 1.6 | 4.8 | 0.00 | 0.00 | 0.00 | 61 | 1014.3 |
| 20260507052638 | 7 | 360 | 1.6 | 4.8 | 0.00 | 0.00 | 0.00 | 61 | 1014.3 |
| 20260507052128 | 7 | 360 | 0.0 | 1.6 | 0.00 | 0.00 | 0.00 | 61 | 1014.2 |
| 20260507051632 | 7 | 360 | 0.0 | 1.6 | 0.00 | 0.00 | 0.00 | 61 | 1014.3 |
| 20260507051142 | 7 | 261 | 0.0 | 1.6 | 0.00 | 0.00 | 0.00 | 61 | 1014.3 |
| 20260507050652 | 7 | 360 | 0.0 | 3.2 | 0.00 | 0.00 | 0.00 | 60 | 1014.3 |
| 20260507050155 | 7 | 360 | 0.0 | 3.2 | 0.00 | 0.00 | 0.00 | 60 | 1014.3 |
| 20260507045624 | 7 | 360 | 1.6 | 3.2 | 0.00 | 0.00 | 0.00 | 60 | 1014.3 |
| 20260507045130 | 7 | 267 | 0.0 | 3.2 | 0.00 | 0.00 | 0.00 | 61 | 1014.4 |
| 20260507044625 | 7 | 273 | 0.0 | 3.2 | 0.00 | 0.00 | 0.00 | 60 | 1014.4 |
| 20260507044136 | 7 | 273 | 0.0 | 3.2 | 0.00 | 0.00 | 0.00 | 60 | 1014.3 |
| 20260507043625 | 7 | 273 | 0.0 | 1.6 | 0.00 | 0.00 | 0.00 | 60 | 1014.3 |
| 20260507043150 | 7 | 360 | 0.0 | 1.6 | 0.00 | 0.00 | 0.00 | 60 | 1014.3 |
| 20260507042641 | 7 | 270 | 0.0 | 1.6 | 0.00 | 0.00 | 0.00 | 60 | 1014.4 |
| 20260507042131 | 7 | 269 | 0.0 | 3.2 | 0.00 | 0.00 | 0.00 | 59 | 1014.4 |
| 20260507041712 | 7 | 360 | 0.0 | 3.2 | 0.00 | 0.00 | 0.00 | 59 | 1014.5 |
| 20260507041128 | 7 | 360 | 0.0 | 1.6 | 0.00 | 0.00 | 0.00 | 59 | 1014.4 |
| 20260507040647 | 7 | 360 | 0.0 | 1.6 | 0.00 | 0.00 | 0.00 | 59 | 1014.4 |
| 20260507040143 | 7 | 360 | 1.6 | 1.6 | 0.00 | 0.00 | 0.00 | 58 | 1014.4 |
| 20260507035633 | 7 | 360 | 0.0 | 1.6 | 0.00 | 0.00 | 0.00 | 58 | 1014.5 |
| 20260507035125 | 7 | 360 | 0.0 | 1.6 | 0.00 | 0.00 | 0.00 | 58 | 1014.5 |
| 20260507034710 | 7 | 275 | 0.0 | 1.6 | 0.00 | 0.00 | 0.00 | 58 | 1014.5 |
| 20260507034137 | 7 | 360 | 0.0 | 1.6 | 0.00 | 0.00 | 0.00 | 57 | 1014.4 |
| 20260507033706 | 7 | 273 | 0.0 | 1.6 | 0.00 | 0.00 | 0.00 | 56 | 1014.4 |
| 20260507033139 | 8 | 360 | 0.0 | 3.2 | 0.00 | 0.00 | 0.00 | 56 | 1014.5 |
| 20260507032630 | 8 | 271 | 0.0 | 3.2 | 0.00 | 0.00 | 0.00 | 56 | 1014.5 |
| 20260507032141 | 8 | 360 | 0.0 | 3.2 | 0.00 | 0.00 | 0.00 | 56 | 1014.5 |
| 20260507031645 | 8 | 273 | 0.0 | 3.2 | 0.00 | 0.00 | 0.00 | 55 | 1014.5 |
| 20260507031156 | 8 | 360 | 0.0 | 1.6 | 0.00 | 0.00 | 0.00 | 54 | 1014.5 |
| 20260507030642 | 8 | 360 | 0.0 | 4.8 | 0.00 | 0.00 | 0.00 | 54 | 1014.5 |
| 20260507030206 | 8 | 360 | 1.6 | 6.4 | 0.00 | 0.00 | 0.00 | 53 | 1014.6 |
| 20260507025636 | 8 | 360 | 1.6 | 6.4 | 0.00 | 0.00 | 0.00 | 53 | 1014.5 |
| 20260507025126 | 8 | 360 | 1.6 | 6.4 | 0.00 | 0.00 | 0.00 | 53 | 1014.5 |
| 20260507024641 | 8 | 360 | 1.6 | 11.3 | 0.00 | 0.00 | 0.00 | 53 | 1014.5 |
| 20260507024152 | 8 | 360 | 3.2 | 9.7 | 0.00 | 0.00 | 0.00 | 53 | 1014.5 |
| 20260507023647 | 8 | 360 | 1.6 | 4.8 | 0.00 | 0.00 | 0.00 | 53 | 1014.4 |
| 20260507023142 | 9 | 360 | 0.0 | 8.0 | 0.00 | 0.00 | 0.00 | 53 | 1014.4 |
| 20260507022633 | 9 | 360 | 1.6 | 8.0 | 0.00 | 0.00 | 0.00 | 52 | 1014.5 |
| 20260507022203 | 9 | 360 | 0.0 | 6.4 | 0.00 | 0.00 | 0.00 | 52 | 1014.3 |
| 20260507021645 | 9 | 360 | 0.0 | 6.4 | 0.00 | 0.00 | 0.00 | 52 | 1014.2 |
| 20260507021135 | 9 | 360 | 1.6 | 12.9 | 0.00 | 0.00 | 0.00 | 52 | 1014.3 |
| 20260507020646 | 9 | 360 | 4.8 | 12.9 | 0.00 | 0.00 | 0.00 | 51 | 1014.2 |
| 20260507020137 | 9 | 360 | 3.2 | 8.0 | 0.00 | 0.00 | 0.00 | 51 | 1014.2 |
| 20260507015627 | 9 | 360 | 3.2 | 6.4 | 0.00 | 0.00 | 0.00 | 51 | 1014.1 |
| 20260507015158 | 9 | 360 | 3.2 | 8.0 | 0.00 | 0.00 | 0.00 | 51 | 1014.1 |
| 20260507014641 | 9 | 360 | 4.8 | 8.0 | 0.00 | 0.00 | 0.00 | 51 | 1014.0 |
| 20260507014130 | 9 | 360 | 3.2 | 6.4 | 0.00 | 0.00 | 0.00 | 51 | 1014.0 |
| 20260507013641 | 9 | 360 | 4.8 | 9.7 | 0.00 | 0.00 | 0.00 | 51 | 1013.9 |
| 20260507013136 | 9 | 360 | 4.8 | 9.7 | 0.00 | 0.00 | 0.00 | 50 | 1014.0 |
| 20260507012626 | 9 | 360 | 4.8 | 8.0 | 0.00 | 0.00 | 0.00 | 50 | 1014.0 |
| 20260507012202 | 10 | 360 | 3.2 | 9.7 | 0.00 | 0.00 | 0.00 | 50 | 1014.0 |
| 20260507011636 | 10 | 360 | 3.2 | 9.7 | 0.00 | 0.00 | 0.00 | 50 | 1013.9 |
| 20260507011126 | 10 | 360 | 4.8 | 12.9 | 0.00 | 0.00 | 0.00 | 49 | 1013.9 |
| 20260507010657 | 10 | 360 | 4.8 | 12.9 | 0.00 | 0.00 | 0.00 | 49 | 1013.9 |
| 20260507010140 | 10 | 360 | 3.2 | 12.9 | 0.00 | 0.00 | 0.00 | 49 | 1013.9 |
| 20260507005650 | 10 | 360 | 3.2 | 14.5 | 0.00 | 0.00 | 0.00 | 49 | 1013.9 |
| 20260507005156 | 10 | 224 | 8.0 | 14.5 | 0.00 | 0.00 | 0.00 | 48 | 1013.8 |
| 20260507004630 | 10 | 360 | 6.4 | 12.9 | 0.00 | 0.00 | 0.00 | 48 | 1013.9 |
| 20260507004150 | 10 | 360 | 6.4 | 14.5 | 0.00 | 0.00 | 0.00 | 48 | 1013.8 |
| 20260507003631 | 10 | 360 | 8.0 | 14.5 | 0.00 | 0.00 | 0.00 | 48 | 1013.9 |
| 20260507003156 | 10 | 360 | 8.0 | 14.5 | 0.00 | 0.00 | 0.00 | 48 | 1013.9 |
| 20260507002644 | 10 | 360 | 6.4 | 14.5 | 0.00 | 0.00 | 0.00 | 48 | 1013.8 |
| 20260507002135 | 10 | 360 | 3.2 | 6.4 | 0.00 | 0.00 | 0.00 | 48 | 1013.8 |
| 20260507001626 | 10 | 360 | 3.2 | 8.0 | 0.00 | 0.00 | 0.00 | 47 | 1013.7 |
| 20260507001202 | 10 | 360 | 4.8 | 8.0 | 0.00 | 0.00 | 0.00 | 46 | 1013.6 |
| 20260507000652 | 10 | 360 | 1.6 | 12.9 | 0.00 | 0.00 | 0.00 | 47 | 1013.5 |
| 20260507000134 | 10 | 360 | 3.2 | 8.0 | 0.00 | 0.00 | 0.00 | 47 | 1013.5 |
| 20260506235645 | 10 | 360 | 3.2 | 9.7 | 0.00 | 0.00 | 0.00 | 46 | 1013.6 |
| 20260506235135 | 10 | 360 | 4.8 | 14.5 | 0.00 | 0.00 | 0.00 | 46 | 1013.7 |
| 20260506234627 | 10 | 360 | 4.8 | 14.5 | 0.00 | 0.00 | 0.00 | 46 | 1013.6 |
| 20260506234158 | 10 | 360 | 4.8 | 17.7 | 0.00 | 0.00 | 0.00 | 45 | 1013.5 |
| 20260506233628 | 10 | 360 | 9.7 | 17.7 | 0.00 | 0.00 | 0.00 | 45 | 1013.5 |
| 20260506233132 | 11 | 360 | 6.4 | 17.7 | 0.00 | 0.00 | 0.00 | 45 | 1013.6 |
| 20260506232643 | 11 | 360 | 6.4 | 16.1 | 0.00 | 0.00 | 0.00 | 45 | 1013.6 |
| 20260506232154 | 11 | 360 | 6.4 | 14.5 | 0.00 | 0.00 | 0.00 | 44 | 1013.5 |
| 20260506231628 | 11 | 360 | 6.4 | 19.3 | 0.00 | 0.00 | 0.00 | 44 | 1013.5 |
| 20260506231144 | 11 | 360 | 11.3 | 19.3 | 0.00 | 0.00 | 0.00 | 44 | 1013.4 |
| 20260506230626 | 11 | 360 | 8.0 | 17.7 | 0.00 | 0.00 | 0.00 | 44 | 1013.5 |
| 20260506230129 | 11 | 360 | 6.4 | 19.3 | 0.00 | 0.00 | 0.00 | 44 | 1013.4 |
| 20260506225640 | 11 | 360 | 11.3 | 22.5 | 0.00 | 0.00 | 0.00 | 42 | 1013.5 |
| 20260506225130 | 11 | 360 | 11.3 | 22.5 | 0.00 | 0.00 | 0.00 | 42 | 1013.5 |
| 20260506224625 | 11 | 360 | 8.0 | 20.9 | 0.00 | 0.00 | 0.00 | 43 | 1013.5 |
| 20260506224136 | 11 | 360 | 9.7 | 20.9 | 0.00 | 0.00 | 0.00 | 43 | 1013.5 |
| 20260506223627 | 11 | 360 | 9.7 | 19.3 | 0.00 | 0.00 | 0.00 | 42 | 1013.4 |
| 20260506223147 | 12 | 360 | 8.0 | 19.3 | 0.00 | 0.00 | 0.00 | 42 | 1013.5 |
| 20260506222638 | 12 | 360 | 8.0 | 20.9 | 0.00 | 0.00 | 0.00 | 42 | 1013.6 |
| 20260506222128 | 12 | 360 | 12.9 | 22.5 | 0.00 | 0.00 | 0.00 | 41 | 1013.5 |
| 20260506221644 | 12 | 360 | 8.0 | 22.5 | 0.00 | 0.00 | 0.00 | 41 | 1013.5 |
| 20260506221134 | 12 | 360 | 9.7 | 22.5 | 0.00 | 0.00 | 0.00 | 41 | 1013.4 |
| 20260506220715 | 12 | 360 | 8.0 | 20.9 | 0.00 | 0.00 | 0.00 | 41 | 1013.4 |
| 20260506220128 | 12 | 360 | 6.4 | 20.9 | 0.00 | 0.00 | 0.00 | 41 | 1013.4 |
| 20260506215634 | 12 | 360 | 8.0 | 22.5 | 0.00 | 0.00 | 0.00 | 41 | 1013.4 |
| 20260506215125 | 12 | 360 | 9.7 | 24.1 | 0.00 | 0.00 | 0.00 | 43 | 1013.4 |
| 20260506214640 | 12 | 360 | 11.3 | 24.1 | 0.00 | 0.00 | 0.00 | 41 | 1013.4 |
| 20260506214131 | 12 | 360 | 8.0 | 14.5 | 0.00 | 0.00 | 0.00 | 41 | 1013.4 |
| 20260506213652 | 12 | 360 | 6.4 | 20.9 | 0.00 | 0.00 | 0.00 | 42 | 1013.4 |
| 20260506213146 | 12 | 360 | 12.9 | 20.9 | 0.00 | 0.00 | 0.00 | 42 | 1013.4 |
| 20260506212637 | 12 | 360 | 9.7 | 27.4 | 0.00 | 0.00 | 0.00 | 41 | 1013.4 |
| 20260506212126 | 12 | 360 | 16.1 | 27.4 | 0.00 | 0.00 | 0.00 | 41 | 1013.3 |
| 20260506211635 | 12 | 360 | 9.7 | 20.9 | 0.00 | 0.00 | 0.00 | 41 | 1013.4 |
| 20260506211154 | 12 | 360 | 9.7 | 20.9 | 0.00 | 0.00 | 0.00 | 40 | 1013.3 |
| 20260506210644 | 12 | 360 | 9.7 | 29.0 | 0.00 | 0.00 | 0.00 | 41 | 1013.3 |
| 20260506210139 | 11 | 360 | 9.7 | 19.3 | 0.00 | 0.00 | 0.00 | 42 | 1013.4 |
| 20260506205630 | 11 | 360 | 8.0 | 19.3 | 0.00 | 0.00 | 0.00 | 42 | 1013.4 |
| 20260506205141 | 11 | 360 | 8.0 | 20.9 | 0.00 | 0.00 | 0.00 | 41 | 1013.4 |
| 20260506204632 | 12 | 360 | 11.3 | 19.3 | 0.00 | 0.00 | 0.00 | 40 | 1013.4 |
| 20260506204143 | 12 | 360 | 8.0 | 29.0 | 0.00 | 0.00 | 0.00 | 41 | 1013.5 |
| 20260506203633 | 12 | 360 | 16.1 | 29.0 | 0.00 | 0.00 | 0.00 | 40 | 1013.4 |
| 20260506203135 | 12 | 360 | 14.5 | 24.1 | 0.00 | 0.00 | 0.00 | 40 | 1013.5 |
| 20260506202626 | 11 | 360 | 11.3 | 20.9 | 0.00 | 0.00 | 0.00 | 40 | 1013.5 |
| 20260506202137 | 11 | 360 | 6.4 | 17.7 | 0.00 | 0.00 | 0.00 | 40 | 1013.5 |
| 20260506201701 | 12 | 360 | 9.7 | 20.9 | 0.00 | 0.00 | 0.00 | 39 | 1013.5 |
| 20260506201124 | 12 | 360 | 12.9 | 20.9 | 0.00 | 0.00 | 0.00 | 39 | 1013.5 |
| 20260506200634 | 13 | 360 | 8.0 | 20.9 | 0.00 | 0.00 | 0.00 | 38 | 1013.5 |
| 20260506200129 | 12 | 360 | 6.4 | 24.1 | 0.00 | 0.00 | 0.00 | 40 | 1013.6 |
| 20260506195640 | 11 | 360 | 8.0 | 25.7 | 0.00 | 0.00 | 0.00 | 40 | 1013.5 |
| 20260506195129 | 12 | 360 | 12.9 | 25.7 | 0.00 | 0.00 | 0.00 | 38 | 1013.6 |
| 20260506194632 | 12 | 360 | 12.9 | 22.5 | 0.00 | 0.00 | 0.00 | 38 | 1013.8 |
| 20260506194142 | 11 | 360 | 9.7 | 35.4 | 0.00 | 0.00 | 0.00 | 40 | 1013.7 |